Location: Unspecified
(35.7250°N, 0.0000°E)
Time: 11:14:04
(UTC+00:00)

Vanguard 1 Rocket - Pass Details

Date: 24 June 2019
Orbit: 650 x 4226 km, 34.3° (Epoch: 13 October)

Event Time Altitude Azimuth Distance (km) Brightness Sun altitude
Rises 14:53:56 0° 225° (SW) 8,455 12.8 51.1°
Reaches altitude 10° 15:00:22 10° 221° (SW) 7,302 12.6 49.8°
Maximum altitude 15:22:36 51° 154° (SSE) 3,554 10.8 45.3°
Drops below altitude 10° 15:35:27 10° 83° (E) 4,463 10.6 42.7°
Sets 15:38:16 0° 78° (ENE) 5,097 10.8 42.1°
